TimeAEST,TemperatureF,Dew PointF,Humidity,Sea Level PressureIn,VisibilityMPH,Wind Direction,Wind SpeedMPH,Gust SpeedMPH,PrecipitationIn,Events,Conditions,WindDirDegrees,DateUTC
12:00 AM,55,44,56,29.54,,North,27.6,,,,Overcast,350,2013-08-16 14:00:00
12:00 AM,55.4,44.6,67,29.53,6.2,North,27.6,40.3,N/A,Rain,Light Rain Showers,350,2013-08-16 14:00:00
12:30 AM,53.6,44.6,72,29.53,6.2,NNW,21.9,-,N/A,Rain,Light Rain Showers,340,2013-08-16 14:30:00
1:00 AM,53.6,42.8,67,29.56,6.2,NNW,18.4,-,N/A,,Overcast,340,2013-08-16 15:00:00
1:30 AM,51.8,44.6,76,29.56,6.2,NNW,17.3,-,N/A,,Overcast,330,2013-08-16 15:30:00
2:00 AM,51.8,42.8,71,29.59,6.2,NW,19.6,-,N/A,,Mostly Cloudy,320,2013-08-16 16:00:00
2:30 AM,50.0,42.8,76,29.59,6.2,NW,15.0,-,N/A,,Unknown,320,2013-08-16 16:30:00
3:00 AM,49,43,73,29.62,,NNW,11.5,,,,,330,2013-08-16 17:00:00
3:00 AM,48.2,42.8,82,29.59,6.2,NNW,11.5,-,N/A,,Unknown,330,2013-08-16 17:00:00
3:30 AM,48.2,42.8,82,29.59,6.2,NNW,9.2,-,N/A,,Mostly Cloudy,330,2013-08-16 17:30:00
4:00 AM,50.0,42.8,76,29.62,6.2,NW,13.8,-,N/A,,Unknown,310,2013-08-16 18:00:00
4:30 AM,48.2,42.8,82,29.62,6.2,NW,12.7,-,N/A,,Unknown,310,2013-08-16 18:30:00
5:00 AM,46.4,41.0,81,29.65,6.2,NNW,5.8,-,N/A,,Scattered Clouds,330,2013-08-16 19:00:00
5:30 AM,42.8,39.2,87,29.65,6.2,NE,8.1,-,N/A,,Unknown,50,2013-08-16 19:30:00
6:00 AM,44.6,39.2,81,29.65,6.2,North,9.2,-,N/A,,Unknown,10,2013-08-16 20:00:00
6:30 AM,44.6,41.0,87,29.65,6.2,NNW,11.5,-,N/A,,Unknown,340,2013-08-16 20:30:00
7:00 AM,46.4,41.0,81,29.68,6.2,NNW,12.7,-,N/A,,Unknown,330,2013-08-16 21:00:00
7:30 AM,46.4,41.0,81,29.68,6.2,NNW,12.7,-,N/A,,Mostly Cloudy,330,2013-08-16 21:30:00
8:00 AM,48.2,41.0,76,29.68,6.2,NNW,13.8,-,N/A,,Unknown,340,2013-08-16 22:00:00
8:30 AM,46.4,41.0,81,29.71,-9999.0,NNE,9.2,-,N/A,,Unknown,20,2013-08-16 22:30:00
9:00 AM,52,41,57,29.72,,North,13.8,,,,,350,2013-08-16 23:00:00
9:00 AM,51.8,41.0,67,29.71,-9999.0,North,13.8,-,N/A,,Unknown,350,2013-08-16 23:00:00
9:30 AM,53.6,42.8,67,29.71,-9999.0,North,15.0,-,N/A,,Unknown,350,2013-08-16 23:30:00
10:00 AM,53.6,42.8,67,29.71,-9999.0,NNW,18.4,-,N/A,,Unknown,340,2013-08-17 00:00:00
10:30 AM,57.2,42.8,59,29.71,-9999.0,NNW,18.4,-,N/A,,Unknown,340,2013-08-17 00:30:00
11:00 AM,57.2,41.0,55,29.68,-9999.0,NNW,21.9,-,N/A,,Unknown,330,2013-08-17 01:00:00
11:08 AM,57.2,41.0,55,29.68,-9999.0,NW,24.2,36.8,N/A,,Unknown,320,2013-08-17 01:08:00
11:30 AM,57.2,39.2,51,29.68,-9999.0,NW,27.6,-,N/A,,Unknown,320,2013-08-17 01:30:00
12:00 PM,58,40,40,29.69,,NW,24.2,,,,,320,2013-08-17 02:00:00
12:00 PM,57.2,41.0,55,29.68,-9999.0,NW,24.2,-,N/A,,Unknown,310,2013-08-17 02:00:00
12:30 PM,57.2,39.2,51,29.68,-9999.0,WNW,20.7,-,N/A,,Unknown,300,2013-08-17 02:30:00
1:00 PM,57.2,39.2,51,29.68,-9999.0,NW,20.7,-,N/A,,Unknown,310,2013-08-17 03:00:00
1:30 PM,59.0,41.0,51,29.68,-9999.0,NW,20.7,-,N/A,,Unknown,310,2013-08-17 03:30:00
2:00 PM,59.0,39.2,48,29.68,-9999.0,NW,17.3,-,N/A,,Unknown,320,2013-08-17 04:00:00
2:30 PM,57.2,39.2,51,29.68,-9999.0,NNW,17.3,-,N/A,,Unknown,330,2013-08-17 04:30:00
2:59 PM,57.2,39.2,51,29.68,-9999.0,NNW,17.3,28.8,N/A,,Unknown,340,2013-08-17 04:59:00
3:00 PM,56,39,41,29.70,,NNW,18.4,,,,,340,2013-08-17 05:00:00
3:00 PM,57.2,39.2,51,29.68,-9999.0,NNW,18.4,-,N/A,,Unknown,340,2013-08-17 05:00:00
3:28 PM,55.4,39.2,54,29.68,-9999.0,NNW,21.9,33.4,N/A,,Unknown,330,2013-08-17 05:28:00
3:30 PM,55.4,39.2,54,29.68,-9999.0,NNW,23.0,-,N/A,,Unknown,330,2013-08-17 05:30:00
4:00 PM,55.4,39.2,54,29.68,-9999.0,NNW,13.8,-,N/A,,Unknown,340,2013-08-17 06:00:00
4:30 PM,55.4,39.2,54,29.68,-9999.0,NNW,20.7,-,N/A,,Unknown,340,2013-08-17 06:30:00
5:00 PM,55.4,41.0,58,29.68,6.2,NNW,19.6,-,N/A,,Unknown,340,2013-08-17 07:00:00
6:00 PM,51,43,66,29.72,,NNW,19.6,,,,Overcast,340,2013-08-17 08:00:00
6:00 PM,51.8,42.8,71,29.71,6.2,NNW,19.6,-,N/A,,Overcast,330,2013-08-17 08:00:00
6:05 PM,51.8,42.8,71,29.71,6.2,NNW,18.4,29.9,N/A,Rain,Light Rain Showers,340,2013-08-17 08:05:00
6:30 PM,51.8,42.8,71,29.68,6.2,North,18.4,-,N/A,,Overcast,350,2013-08-17 08:30:00
7:00 PM,51.8,42.8,71,29.68,6.2,North,21.9,-,N/A,,Overcast,350,2013-08-17 09:00:00
7:30 PM,51.8,42.8,71,29.71,6.2,North,20.7,-,N/A,,Unknown,350,2013-08-17 09:30:00
8:02 PM,51.8,42.8,71,29.71,6.2,NNW,19.6,31.1,N/A,,Scattered Clouds,340,2013-08-17 10:02:00
8:30 PM,51.8,42.8,71,29.71,6.2,NNW,17.3,-,N/A,,Mostly Cloudy,340,2013-08-17 10:30:00
9:00 PM,51,42,61,29.75,,North,12.7,,,,Overcast,350,2013-08-17 11:00:00
9:00 PM,51.8,41.0,67,29.74,6.2,North,12.7,-,N/A,,Scattered Clouds,350,2013-08-17 11:00:00
9:30 PM,50.0,41.0,71,29.74,6.2,North,13.8,-,N/A,,Unknown,350,2013-08-17 11:30:00
10:00 PM,50.0,42.8,76,29.74,6.2,North,13.8,-,N/A,,Unknown,350,2013-08-17 12:00:00
10:30 PM,50.0,41.0,71,29.74,6.2,North,12.7,-,N/A,,Unknown,350,2013-08-17 12:30:00
11:00 PM,50.0,41.0,71,29.71,6.2,North,13.8,-,N/A,,Unknown,360,2013-08-17 13:00:00
11:30 PM,50.0,42.8,76,29.74,6.2,North,13.8,-,N/A,,Unknown,360,2013-08-17 13:30:00